Find Starlink 31566

NORAD ID: 59475 Int'l Des: 2024-068 Owner: SPXS Country: US Constellation: starlink operational
LEOCIRCULAR

Current View

Loading 3D Globe...

About Starlink 31566

Starlink 31566 (NORAD 59475) is a starlink constellation satellite (v2 mini) launched Apr 10, 2024 by SPXS of US. It operates in LEO, CIRCULAR orbit with a mass of 730.00 kg.

Upcoming Passes

Passes for default location (London). Set your location on the main map for personalized predictions.

Altitude History

Loading altitude history...

Two-Line Element Set

1 59475U 24068W 26263.60306491 .00000226 00000-0 17747-4 0 9998
2 59475 43.0019 13.6211 0001075 271.3200 88.7528 15.27577590138335
Epoch: Sep 20, 2026 • Age: 13 hours

Current Status

Altitude 486.4 km
Apogee / Perigee N/A
Velocity 7.62 km/s
Sub-Earth Point -17.21°S, 150.85°E
Launch Date Apr 10, 2024
Age 2.4 years
Type internet

Technical Details

Classification Payload
Mass 730.00 kg
Dry Mass 700.00 kg
Length 0.30 m
Span 29.00 m
Shape ? Box + pan
Manufacturer SPXS
Bus Type Starlink V2M
Phase Status In Orbit
Owner/State SPXS/US

Most Searched